Weather History for Worland, WY

Change the Weather History Date:

Friday, November 9, 2012

  Actual Average Record
Temperature  
Mean Temperature 28 °F 35 °F  
Max Temperature 34 °F 49 °F 67 °F (1964)
Min Temperature 22 °F 21 °F -11 °F (1966)
Degree Days  
Heating Degree Days 37 30  
Month to date heating degree days 194 254  
Since 1 July heating degree days 900 1116  
Cooling Degree Days 0 0  
Month to date cooling degree days 0 0  
Year to date cooling degree days 901 535  
Moisture  
Dew Point 28 °F    
Average Humidity 88    
Maximum Humidity 100    
Minimum Humidity 75    
Precipitation  
Precipitation 0.41 in 0.02 in 0.47 in (1992)
Month to date precipitation 0.41 0.12  
Year to date precipitation 2.46 7.11  
Sea Level Pressure  
Sea Level Pressure 29.69 in    
Wind  
Wind Speed 4 mph (WNW)    
Max Wind Speed 9 mph    
Max Gust Speed 16 mph    
Visibility 3 miles    
Events Fog , Snow    
T = Trace of Precipitation, MM = Missing Value Source: NWS Daily Summary

Daily Weather History Graph

Daily Weather History Graph

Search for Another Location

Airport:

Trip Planner

Search our weather history database for the weather conditions in past years. The results will help you decide how hot, cold, wet, or windy it might be!

Date:

Astronomy

Nov. 09, 2012 Rise Set
Actual Time 6:59 AM MST 4:51 PM MST
Civil Twilight 6:28 AM MST 5:21 PM MST
Nautical Twilight 5:54 AM MST 5:56 PM MST
Astronomical Twilight 5:20 AM MST 6:30 PM MST
Moon 1:52 AM MST (11/9) 2:14 PM MST (11/9)
Length of Visible Light 10h 53m
Length of Day
9h 51m
Waning Crescent, 22% of the Moon is Illuminated
Nov 9
Waning Crescent
Nov 13
New
Nov 20
First Quarter
Nov 28
Full
Dec 6
Last Quarter

Hourly Weather History & Observations

Time (MST) Temp. Windchill Dew Point Humidity Pressure Visibility Wind Dir Wind Speed Gust Speed Precip Events Conditions
12:53 AM 23.0 °F 15.8 °F 19.9 °F 88% 29.73 in 7.0 mi East 5.8 mph - N/A   Clear
1:53 AM 23.0 °F 15.8 °F 21.0 °F 92% 29.71 in 6.0 mi East 5.8 mph - N/A   Partly Cloudy
2:07 AM 23.0 °F 15.8 °F 21.2 °F 93% 29.67 in 6.0 mi East 5.8 mph - N/A   Mostly Cloudy
2:27 AM 24.8 °F 20.5 °F 23.0 °F 93% 29.67 in 7.0 mi East 3.5 mph - N/A   Overcast
2:53 AM 27.0 °F - 23.0 °F 85% 29.70 in 7.0 mi Calm Calm - N/A   Overcast
3:53 AM 27.0 °F - 23.0 °F 85% 29.69 in 7.0 mi Calm Calm - N/A   Overcast
4:53 AM 28.0 °F - 24.1 °F 85% 29.70 in 8.0 mi Calm Calm - N/A   Overcast
5:53 AM 28.9 °F 25.2 °F 24.1 °F 82% 29.70 in 8.0 mi South 3.5 mph - N/A   Overcast
6:53 AM 28.9 °F - 24.1 °F 82% 29.70 in 8.0 mi Calm Calm - N/A   Overcast
7:53 AM 30.0 °F - 25.0 °F 82% 29.72 in 6.0 mi Calm Calm - N/A   Haze
8:53 AM 30.0 °F 24.1 °F 26.1 °F 85% 29.75 in 5.0 mi North 5.8 mph - N/A   Overcast
9:53 AM 32.0 °F - 27.0 °F 82% 29.77 in 5.0 mi Calm Calm - N/A   Haze
10:09 AM 32.0 °F - 26.6 °F 80% 29.67 in 6.0 mi Calm Calm - N/A   Haze
10:53 AM 33.1 °F - 27.0 °F 78% 29.78 in 7.0 mi Calm Calm - N/A   Overcast
11:16 AM 33.8 °F - 28.4 °F 81% 29.69 in 7.0 mi Calm Calm - N/A   Overcast
11:53 AM 34.0 °F - 27.0 °F 75% 29.77 in 8.0 mi Calm Calm - N/A   Overcast
12:43 PM 33.8 °F 29.6 °F 28.4 °F 81% 29.65 in 1.8 mi SSE 4.6 mph - 0.00 in Snow Light Snow
12:53 PM 33.1 °F 27.7 °F 28.9 °F 85% 29.75 in 0.8 mi South 5.8 mph - 0.00 in Snow Light Snow
1:24 PM 30.2 °F 23.4 °F 30.2 °F 100% 29.64 in 0.2 mi South 6.9 mph - 0.02 in Fog , Snow Snow
1:29 PM 30.2 °F 24.3 °F 30.2 °F 100% 29.64 in 0.5 mi South 5.8 mph - 0.02 in Fog , Snow Snow
1:49 PM 30.2 °F 21.9 °F 30.2 °F 100% 29.65 in 1.2 mi SSW 9.2 mph - 0.02 in Snow Light Snow
1:53 PM 30.9 °F 25.2 °F 30.0 °F 96% 29.75 in 1.2 mi SW 5.8 mph - 0.02 in Snow Light Snow
2:03 PM 30.2 °F 24.3 °F 30.2 °F 100% 29.64 in 1.2 mi SW 5.8 mph - 0.00 in Snow Light Snow
2:24 PM 32.0 °F 26.4 °F 30.2 °F 93% 29.64 in 2.0 mi SW 5.8 mph - 0.00 in Snow Light Snow
2:31 PM 32.0 °F 26.4 °F 30.2 °F 93% 29.64 in 1.5 mi SW 5.8 mph - 0.00 in Snow Light Snow
2:42 PM 32.0 °F 26.4 °F 30.2 °F 93% 29.65 in 0.8 mi South 5.8 mph - 0.01 in Snow Light Snow
2:47 PM 32.0 °F 27.5 °F 30.2 °F 93% 29.65 in 1.2 mi South 4.6 mph - 0.01 in Snow Light Snow
2:53 PM 32.0 °F - 30.9 °F 96% 29.73 in 1.0 mi Calm Calm - 0.01 in Snow Light Snow
3:04 PM 32.0 °F - 30.2 °F 93% 29.64 in 0.8 mi Calm Calm - 0.01 in Snow Light Snow
3:13 PM 32.0 °F 28.7 °F 30.2 °F 93% 29.67 in 0.5 mi South 3.5 mph - 0.01 in Fog , Snow Snow
3:22 PM 32.0 °F - 30.2 °F 93% 29.67 in 0.5 mi Calm Calm - 0.02 in Fog , Snow Light Snow
3:53 PM 32.0 °F 27.5 °F 30.9 °F 96% 29.73 in 0.5 mi North 4.6 mph - 0.04 in Fog , Snow Snow
4:00 PM 32.0 °F - 30.2 °F 93% 29.66 in 0.2 mi Calm Calm - 0.01 in Fog , Snow Snow
4:21 PM 30.2 °F 25.4 °F 30.2 °F 100% 29.66 in 0.5 mi North 4.6 mph - 0.03 in Fog , Snow Snow
4:28 PM 30.2 °F 24.3 °F 30.2 °F 100% 29.65 in 0.2 mi NNE 5.8 mph - 0.03 in Fog , Snow Snow
4:49 PM 30.2 °F - 30.2 °F 100% 29.66 in 0.5 mi Calm Calm - 0.05 in Fog , Snow Snow
4:53 PM 30.9 °F 27.5 °F 30.0 °F 96% 29.74 in 0.8 mi NNE 3.5 mph - 0.06 in Snow Light Snow
5:12 PM 30.2 °F 26.7 °F 30.2 °F 100% 29.65 in 1.0 mi NW 3.5 mph - 0.01 in Snow Light Snow
5:44 PM 30.2 °F 24.3 °F 28.4 °F 93% 29.64 in 1.5 mi NW 5.8 mph - 0.02 in Snow Light Snow
5:53 PM 30.0 °F 24.1 °F 28.9 °F 96% 29.74 in 1.2 mi WNW 5.8 mph - 0.02 in Snow Light Snow
6:07 PM 30.2 °F 24.3 °F 28.4 °F 93% 29.66 in 1.0 mi West 5.8 mph - 0.01 in Snow Light Snow
6:15 PM 30.2 °F 24.3 °F 28.4 °F 93% 29.66 in 0.8 mi West 5.8 mph - 0.02 in Snow Light Snow
6:31 PM 30.2 °F 23.4 °F 28.4 °F 93% 29.65 in 0.2 mi WNW 6.9 mph - 0.05 in Fog , Snow Heavy Snow
6:42 PM 30.2 °F 25.4 °F 28.4 °F 93% 29.65 in 0.5 mi NW 4.6 mph - 0.06 in Fog , Snow Snow
6:53 PM 30.0 °F 25.2 °F 28.9 °F 96% 29.74 in 0.8 mi WNW 4.6 mph - 0.07 in Snow Light Snow
7:41 PM 28.4 °F 22.2 °F 28.4 °F 100% 29.65 in 1.0 mi NNW 5.8 mph - 0.06 in Snow Light Snow
7:53 PM 28.9 °F 23.9 °F 28.0 °F 96% 29.75 in 1.2 mi WNW 4.6 mph - 0.07 in Snow Light Snow
8:03 PM 28.4 °F 22.2 °F 28.4 °F 100% 29.66 in 1.2 mi WNW 5.8 mph - 0.01 in Snow Light Snow
8:30 PM 28.4 °F 24.6 °F 28.4 °F 100% 29.66 in 1.0 mi NW 3.5 mph - 0.03 in Snow Light Snow
8:42 PM 28.4 °F 23.3 °F 28.4 °F 100% 29.65 in 1.8 mi NW 4.6 mph - 0.03 in Snow Light Snow
8:50 PM 28.4 °F 23.3 °F 28.4 °F 100% 29.65 in 2.0 mi NW 4.6 mph - 0.03 in Snow Light Snow
8:53 PM 28.9 °F 25.2 °F 28.0 °F 96% 29.74 in 1.8 mi NW 3.5 mph - 0.03 in Snow Light Snow
9:08 PM 28.4 °F 24.6 °F 28.4 °F 100% 29.66 in 1.2 mi West 3.5 mph - 0.01 in Snow Light Snow
9:48 PM 28.4 °F 22.2 °F 28.4 °F 100% 29.64 in 0.8 mi NW 5.8 mph - 0.05 in Snow Light Snow
9:53 PM 28.0 °F 24.2 °F 28.0 °F 100% 29.74 in 0.5 mi WNW 3.5 mph - 0.06 in Fog , Snow Snow
10:25 PM 28.4 °F 19.1 °F 26.6 °F 93% 29.65 in 1.0 mi WNW 10.4 mph - 0.03 in Snow Light Snow
10:53 PM 28.0 °F 19.3 °F 25.0 °F 88% 29.74 in 4.0 mi NNW 9.2 mph - 0.03 in Snow Light Snow
11:02 PM 26.6 °F 18.2 °F 24.8 °F 93% 29.66 in 9.0 mi NW 8.1 mph - 0.00 in   Overcast
11:41 PM 26.6 °F 16.2 °F 24.8 °F 93% 29.65 in 2.0 mi NNW 11.5 mph - 0.00 in Snow Light Snow
11:53 PM 26.1 °F 17.6 °F 24.1 °F 92% 29.75 in 3.0 mi NW 8.1 mph - 0.00 in Snow Light Snow